Location: Erdweis
(48.5167°N, 15.3500°E)
Time: 01:57:33
(UTC+00:00)

SL-08 RB Rocket - Pass Details

Date: 18 September 2020
Orbit: 647 x 684 km, 97.8° (Epoch: 31 October)

Event Time Altitude Azimuth Distance (km) Brightness Sun altitude
Exits shadow 17:54:33 - 148° (SSE) 2,858 6.5 -9.1°
Reaches altitude 10° 17:56:27 10° 143° (SE) 2,103 5.8 -9.4°
Maximum altitude 18:00:51 47° 70° (ENE) 884 4.0 -10.1°
Drops below altitude 10° 18:05:15 10° 357° (N) 2,096 6.5 -10.8°
Sets 18:07:31 0° 352° (N) 3,007 7.4 -11.2°
